Weather History for Glendive, MT

Change the Weather History Date:

Friday, November 23, 2012

  Actual Average Record
Temperature  
Mean Temperature 21 °F -  
Max Temperature 32 °F 35 °F 57 °F (2005)
Min Temperature 10 °F 18 °F -11 °F (2010)
Degree Days  
Heating Degree Days 44    
Moisture  
Dew Point 14 °F    
Average Humidity 75    
Maximum Humidity 92    
Minimum Humidity 59    
Precipitation  
Precipitation 0.00 in - - ()
Sea Level Pressure  
Sea Level Pressure 30.28 in    
Wind  
Wind Speed 4 mph (ESE)    
Max Wind Speed 9 mph    
Max Gust Speed -    
Visibility 10 miles    
Events      
Averages and records for this station are not official NWS values.
T = Trace of Precipitation, MM = Missing Value Source: NWS Daily Summary

Daily Weather History Graph

Daily Weather History Graph

Search for Another Location

Airport:

Trip Planner

Search our weather history database for the weather conditions in past years. The results will help you decide how hot, cold, wet, or windy it might be!

Date:

Astronomy

Nov. 23, 2012 Rise Set
Actual Time 7:15 AM MST 4:16 PM MST
Civil Twilight 6:41 AM MST 4:50 PM MST
Nautical Twilight 6:03 AM MST 5:27 PM MST
Astronomical Twilight 5:26 AM MST 6:04 PM MST
Moon 1:45 PM MST (11/23) 2:20 AM MST (11/23)
Length of Visible Light 10h 09m
Length of Day
9h 01m
Waxing Gibbous, 80% of the Moon is Illuminated
Nov 23
Waxing Gibbous
Nov 28
Full
Dec 6
Last Quarter
Dec 13
New
Dec 19
First Quarter

Hourly Weather History & Observations

Time (MST) Temp. Windchill Dew Point Humidity Pressure Visibility Wind Dir Wind Speed Gust Speed Precip Events Conditions
12:15 AM 10.4 °F 2.2 °F 6.8 °F 85% 30.50 in 10.0 mi West 4.6 mph - N/A   Clear
12:35 AM 10.4 °F 2.2 °F 6.8 °F 85% 30.49 in 10.0 mi SW 4.6 mph - N/A   Clear
12:55 AM 10.4 °F -0.4 °F 6.8 °F 85% 30.48 in 10.0 mi West 6.9 mph - N/A   Clear
1:15 AM 10.4 °F 4.0 °F 6.8 °F 85% 30.48 in 10.0 mi West 3.5 mph - N/A   Clear
1:35 AM 10.4 °F 4.0 °F 8.6 °F 92% 30.48 in 10.0 mi SSE 3.5 mph - N/A   Clear
1:55 AM 10.4 °F - 6.8 °F 85% 30.49 in 10.0 mi Calm Calm - N/A   Clear
2:15 AM 10.4 °F 4.0 °F 6.8 °F 85% 30.49 in 10.0 mi West 3.5 mph - N/A   Clear
2:35 AM 10.4 °F 2.2 °F 6.8 °F 85% 30.49 in 10.0 mi West 4.6 mph - N/A   Clear
2:55 AM 10.4 °F 0.8 °F 6.8 °F 85% 30.48 in 10.0 mi West 5.8 mph - N/A   Clear
3:15 AM 10.4 °F 0.8 °F 5.0 °F 79% 30.48 in 10.0 mi WNW 5.8 mph - N/A   Clear
3:35 AM 10.4 °F 2.2 °F 5.0 °F 79% 30.48 in 10.0 mi West 4.6 mph - N/A   Clear
3:55 AM 10.4 °F 2.2 °F 8.6 °F 92% 30.47 in 10.0 mi WNW 4.6 mph - N/A   Clear
4:15 AM 10.4 °F 0.8 °F 6.8 °F 85% 30.46 in 10.0 mi West 5.8 mph - N/A   Clear
4:35 AM 10.4 °F 2.2 °F 3.2 °F 73% 30.46 in 10.0 mi West 4.6 mph - N/A   Clear
4:55 AM 10.4 °F 2.2 °F 5.0 °F 79% 30.46 in 10.0 mi West 4.6 mph - N/A   Clear
5:15 AM 10.4 °F 4.0 °F 6.8 °F 85% 30.46 in 10.0 mi SSW 3.5 mph - N/A   Clear
5:35 AM 10.4 °F 4.0 °F 5.0 °F 79% 30.45 in 10.0 mi South 3.5 mph - N/A   Clear
5:55 AM 10.4 °F 4.0 °F 1.4 °F 67% 30.45 in 10.0 mi SW 3.5 mph - N/A   Clear
6:15 AM 10.4 °F - 5.0 °F 79% 30.45 in 10.0 mi Calm Calm - N/A   Clear
6:35 AM 10.4 °F - 6.8 °F 85% 30.44 in 10.0 mi Calm Calm - N/A   Clear
6:55 AM 10.4 °F - 6.8 °F 85% 30.44 in 10.0 mi Calm Calm - N/A   Clear
7:15 AM 10.4 °F - 5.0 °F 79% 30.43 in 10.0 mi Calm Calm - N/A   Clear
7:35 AM 10.4 °F 4.0 °F 6.8 °F 85% 30.44 in 10.0 mi SW 3.5 mph - N/A   Clear
7:55 AM 12.2 °F 6.1 °F 10.4 °F 92% 30.44 in 10.0 mi SSW 3.5 mph - N/A   Clear
8:15 AM 14.0 °F - 8.6 °F 79% 30.43 in 10.0 mi Calm Calm - N/A   Clear
8:35 AM 15.8 °F - 10.4 °F 79% 30.43 in 10.0 mi Calm Calm - N/A   Clear
8:55 AM 17.6 °F 12.3 °F 10.4 °F 73% 30.43 in 10.0 mi SSW 3.5 mph - N/A   Clear
9:15 AM 17.6 °F 10.7 °F 12.2 °F 79% 30.42 in 10.0 mi SSW 4.6 mph - N/A   Clear
9:35 AM 17.6 °F 9.3 °F 12.2 °F 79% 30.41 in 10.0 mi South 5.8 mph - N/A   Clear
9:55 AM 19.4 °F 12.8 °F 12.2 °F 74% 30.40 in 10.0 mi SSE 4.6 mph - N/A   Clear
10:15 AM 19.4 °F 10.4 °F 12.2 °F 74% 30.38 in 10.0 mi SE 6.9 mph - N/A   Clear
10:35 AM 19.4 °F 11.5 °F 12.2 °F 74% 30.38 in 10.0 mi SE 5.8 mph - N/A   Clear
10:55 AM 21.2 °F 13.6 °F 14.0 °F 74% 30.37 in 10.0 mi SSE 5.8 mph - N/A   Clear
11:15 AM 21.2 °F 12.6 °F 12.2 °F 68% 30.37 in 10.0 mi SSE 6.9 mph - N/A   Clear
11:35 AM 21.2 °F 14.9 °F 12.2 °F 68% 30.34 in 10.0 mi SSE 4.6 mph - N/A   Clear
11:55 AM 24.8 °F 20.5 °F 15.8 °F 69% 30.34 in 10.0 mi SE 3.5 mph - N/A   Clear
12:15 PM 24.8 °F 19.1 °F 14.0 °F 64% 30.33 in 10.0 mi East 4.6 mph - N/A   Clear
12:35 PM 26.6 °F 20.0 °F 15.8 °F 64% 30.32 in 10.0 mi East 5.8 mph - N/A   Clear
12:55 PM 26.6 °F 19.1 °F 14.0 °F 59% 30.30 in 10.0 mi SE 6.9 mph - N/A   Clear
1:15 PM 26.6 °F 21.2 °F 15.8 °F 64% 30.28 in 10.0 mi East 4.6 mph - N/A   Mostly Cloudy
1:55 PM 28.4 °F 23.3 °F 17.6 °F 64% 30.26 in 10.0 mi ENE 4.6 mph - N/A   Overcast
2:15 PM 28.4 °F 20.4 °F 17.6 °F 64% 30.23 in 10.0 mi East 8.1 mph - N/A   Overcast
2:35 PM 30.2 °F 22.6 °F 17.6 °F 60% 30.22 in 10.0 mi East 8.1 mph - N/A   Overcast
2:55 PM 30.2 °F 23.4 °F 19.4 °F 64% 30.22 in 10.0 mi NE 6.9 mph - N/A   Overcast
3:15 PM 28.4 °F 21.2 °F 19.4 °F 69% 30.21 in 10.0 mi NE 6.9 mph - N/A   Overcast
3:55 PM 28.4 °F 20.4 °F 19.4 °F 69% 30.18 in 10.0 mi ENE 8.1 mph - N/A   Overcast
4:15 PM 28.4 °F 22.2 °F 19.4 °F 69% 30.17 in 10.0 mi East 5.8 mph - N/A   Overcast
4:35 PM 28.4 °F 20.4 °F 19.4 °F 69% 30.16 in 10.0 mi NE 8.1 mph - N/A   Overcast
4:55 PM 30.2 °F 24.3 °F 21.2 °F 69% 30.15 in 10.0 mi ENE 5.8 mph - N/A   Overcast
5:15 PM 30.2 °F 24.3 °F 21.2 °F 69% 30.14 in 10.0 mi East 5.8 mph - N/A   Mostly Cloudy
5:35 PM 30.2 °F 24.3 °F 21.2 °F 69% 30.13 in 10.0 mi East 5.8 mph - N/A   Partly Cloudy
5:55 PM 30.2 °F 25.4 °F 21.2 °F 69% 30.12 in 10.0 mi ENE 4.6 mph - N/A   Partly Cloudy
6:15 PM 30.2 °F 24.3 °F 21.2 °F 69% 30.12 in 10.0 mi ENE 5.8 mph - N/A   Mostly Cloudy
6:35 PM 30.2 °F 24.3 °F 23.0 °F 75% 30.11 in 10.0 mi ENE 5.8 mph - N/A   Overcast
6:55 PM 30.2 °F 24.3 °F 23.0 °F 75% 30.10 in 10.0 mi ENE 5.8 mph - N/A   Overcast
7:15 PM 30.2 °F 24.3 °F 23.0 °F 75% 30.08 in 10.0 mi ENE 5.8 mph - N/A   Overcast
7:35 PM 30.2 °F 26.7 °F 23.0 °F 75% 30.07 in 10.0 mi ENE 3.5 mph - N/A   Overcast
7:55 PM 30.2 °F 26.7 °F 23.0 °F 75% 30.06 in 10.0 mi ENE 3.5 mph - N/A   Overcast
8:15 PM 30.2 °F 26.7 °F 23.0 °F 75% 30.05 in 10.0 mi ENE 3.5 mph - N/A   Overcast
8:35 PM 32.0 °F 27.5 °F 23.0 °F 69% 30.04 in 10.0 mi East 4.6 mph - N/A   Overcast
8:55 PM 30.2 °F 25.4 °F 23.0 °F 75% 30.04 in 10.0 mi ENE 4.6 mph - N/A   Overcast
9:15 PM 30.2 °F 26.7 °F 21.2 °F 69% 30.03 in 10.0 mi ENE 3.5 mph - N/A   Mostly Cloudy
9:35 PM 30.2 °F 25.4 °F 21.2 °F 69% 30.02 in 10.0 mi ENE 4.6 mph - N/A   Mostly Cloudy
9:55 PM 30.2 °F 25.4 °F 21.2 °F 69% 30.00 in 10.0 mi East 4.6 mph - N/A   Partly Cloudy
10:15 PM 30.2 °F 24.3 °F 21.2 °F 69% 30.00 in 10.0 mi SSE 5.8 mph - N/A   Clear
10:35 PM 28.4 °F - 19.4 °F 69% 29.98 in 10.0 mi Calm Calm - N/A   Clear
10:55 PM 28.4 °F 21.2 °F 21.2 °F 74% 29.97 in 10.0 mi South 6.9 mph - N/A   Clear
11:15 PM 26.6 °F 19.1 °F 21.2 °F 80% 29.97 in 10.0 mi South 6.9 mph - N/A   Scattered Clouds
11:35 PM 28.4 °F 20.4 °F 21.2 °F 74% 29.96 in 10.0 mi South 8.1 mph - N/A   Mostly Cloudy
11:55 PM 28.4 °F 19.7 °F 21.2 °F 74% 29.95 in 10.0 mi South 9.2 mph - N/A   Partly Cloudy